Weather History for CYYJ - April, 2014

Change the Weather History Date:

Saturday, April 5, 2014

  Actual Average Record
Temperature  
Mean Temperature 46 °F -  
Max Temperature 51 °F 56 °F - ()
Min Temperature 40 °F 40 °F - ()
Degree Days  
Heating Degree Days 20    
Moisture  
Dew Point 43 °F    
Average Humidity 86    
Maximum Humidity 94    
Minimum Humidity 66    
Precipitation  
Precipitation 0.08 in 0.05 in - ()
Sea Level Pressure  
Sea Level Pressure 29.98 in    
Wind  
Wind Speed 5 mph ()    
Max Wind Speed 17 mph    
Max Gust Speed 25 mph    
Visibility 17.6 miles    
Events Rain    
T = Trace of Precipitation, MM = Missing Value Source: Averaged Metar Reports

Daily Weather History Graph

Daily Weather History Graph

Search for Another Location

Airport or City:

Trip Planner

Search our weather history database for the weather conditions in past years. The results will help you decide how hot, cold, wet, or windy it might be!

Date:

Astronomy

Apr. 05, 2014 Rise Set
Actual Time 6:43 AM PDT 7:50 PM PDT
Civil Twilight 6:10 AM PDT 8:22 PM PDT
Nautical Twilight 5:32 AM PDT 9:01 PM PDT
Astronomical Twilight 4:50 AM PDT 9:43 PM PDT
Moon 10:38 AM PDT (4/5) 1:22 AM PDT (4/5)
Length of Visible Light 14h 11m
Length of Day
13h 07m
Waxing Crescent, 35% of the Moon is Illuminated
Apr 5
Waxing Crescent
Apr 7
First Quarter
Apr 15
Full
Apr 22
Last Quarter
Apr 28
New

Hourly Weather History & Observations

Time (PDT) Temp. Windchill Dew Point Humidity Pressure Visibility Wind Dir Wind Speed Gust Speed Precip Events Conditions
12:00 AM 46.4 °F 44.3 °F 39.2 °F 76% 29.96 in 30.0 mi West 4.6 mph - N/A   Mostly Cloudy
1:00 AM 44.6 °F - 39.2 °F 81% 29.96 in 30.0 mi Calm Calm - N/A   Mostly Cloudy
2:00 AM 46.4 °F - 39.2 °F 76% 29.96 in 30.0 mi Calm Calm - N/A   Mostly Cloudy
3:00 AM 42.8 °F - 39.2 °F 87% 29.97 in 30.0 mi Calm Calm - N/A   Overcast
4:00 AM 44.6 °F - 41.0 °F 87% 29.98 in 30.0 mi Calm Calm - N/A   Overcast
5:00 AM 43 °F - 41 °F 91% 29.99 in 28 mi North 1.2 mph - -   Overcast
5:00 AM 42.8 °F - 41.0 °F 93% 29.98 in 30.0 mi Calm Calm - N/A   Overcast
6:00 AM 44.6 °F - 41.0 °F 87% 29.98 in 30.0 mi North 2.3 mph - N/A   Overcast
7:00 AM 44.6 °F - 41.0 °F 87% 29.99 in 30.0 mi Calm Calm - N/A   Overcast
8:00 AM 44.6 °F - 42.8 °F 93% 29.99 in 30.0 mi SSE 2.3 mph - N/A   Overcast
9:00 AM 46.4 °F 42.4 °F 44.6 °F 93% 29.99 in 30.0 mi SSE 8.1 mph - N/A   Mostly Cloudy
10:00 AM 48.2 °F - 44.6 °F 87% 30.01 in 30.0 mi ESE 6.9 mph - N/A   Overcast
10:12 AM 48.2 °F - 44.6 °F 87% 30.01 in 30.0 mi SE 6.9 mph - N/A Rain Light Rain
11:00 AM 48 °F - 45 °F 86% 30.02 in 28 mi ESE 9.2 mph - - Rain Light Rain
11:00 AM 48.2 °F - 44.6 °F 87% 30.02 in 30.0 mi ESE 9.2 mph - N/A Rain Light Rain
12:00 PM 48.2 °F - 46.4 °F 93% 30.01 in 30.0 mi SE 9.2 mph - N/A Rain Light Rain
1:00 PM 48.2 °F - 46.4 °F 93% 30.00 in 20.0 mi SE 10.4 mph - N/A Rain Light Rain
2:00 PM 48.2 °F - 46.4 °F 93% 29.99 in 15.0 mi SE 8.1 mph - N/A Rain Light Rain
3:00 PM 50.0 °F - 46.4 °F 87% 29.97 in 15.0 mi SE 8.1 mph - N/A Rain Light Rain
4:00 PM 50.0 °F - 48.2 °F 94% 29.96 in 15.0 mi ESE 6.9 mph - N/A Rain Light Rain
5:00 PM 49 °F - 47 °F 92% 29.94 in 15 mi SE 5.8 mph - - Rain Light Rain
5:00 PM 50.0 °F - 48.2 °F 94% 29.94 in 15.0 mi SE 6.9 mph - N/A Rain Light Rain
6:00 PM 50.0 °F - 48.2 °F 94% 29.95 in 20.0 mi SSE 10.4 mph - N/A Rain Light Rain
6:16 PM 50.0 °F - 48.2 °F 94% 29.94 in 30.0 mi SSE 10.4 mph - N/A   Mostly Cloudy
7:00 PM 51.8 °F - 46.4 °F 82% 29.94 in 30.0 mi South 9.2 mph - N/A   Mostly Cloudy
8:00 PM 50.0 °F - 39.2 °F 66% 29.96 in 30.0 mi WSW 17.3 mph 25.3 mph N/A   Mostly Cloudy
9:00 PM 50.0 °F - 41.0 °F 71% 29.99 in 20.0 mi WSW 11.5 mph - N/A   Mostly Cloudy
10:00 PM 46.4 °F 41.9 °F 41.0 °F 81% 30.01 in 20.0 mi SW 9.2 mph - N/A   Mostly Cloudy
11:00 PM 49 °F - 41 °F 67% 30.04 in 19 mi WSW 12.7 mph - -   Partly Cloudy
11:00 PM 48.2 °F - 41.0 °F 76% 30.04 in 20.0 mi WSW 12.7 mph 21.9 mph N/A   Mostly Cloudy